Regional Weather Roundup
Issued by NWS Charleston, SC

Home | Current Version | Previous Version | Text Only | Print | Product List | Glossary On
Versions: 1 2 3 4 5 6 7 8 9 10 11 12 13 14 15 16 17 18 19 20 21 22 23 24 25 26 27 28 29 30 31 32 33 34 35 36 37 38 39 40 41 42 43 44 45 46 47 48 49 50
000
ASUS42 KCHS 271713
RWRCHS

REGIONAL WEATHER ROUNDUP
NATIONAL WEATHER SERVICE CHARLESTON SC
100 PM EDT FRI MAY 27 2016

NOTE: "FAIR" INDICATES FEW OR NO CLOUDS BELOW 12,000 FEET WITH NO
SIGNIFICANT WEATHER AND/OR OBSTRUCTIONS TO VISIBILITY.

NOT ALL STATIONS ARE QUALITY CONTROLLED. USE DATA WITH CAUTION...
ESPECIALLY DEWPOINT OBSERVATIONS.

SCZ027-030-031-034>040-042>050-271800-
...SOUTHEAST SOUTH CAROLINA...

CITY           SKY/WX    TMP DP  RH WIND       PRES   REMARKS
N CHARLESTON   MOSUNNY   83  57  41 SE8G17    30.13F
WATERFRONT PRK   N/A     80  64  58 E10       30.12S
MOUNT PLEASANT FAIR      82  61  47 E9        30.14F
JOHNS ISLAND   FAIR      81  63  54 NE8       30.14F
PINOPOLIS        N/A     84  61  45 NE6       30.05F
MONCKS CORNER  FAIR      82  52  34 E9G17     30.13F
SUMMERVILLE    FAIR      86  59  39 E6        30.14F
BEAUFORT MCAS  SUNNY     83  60  45 E7        30.13F
BEAUFORT ARPT  FAIR      81  59  47 E9        30.13F
HILTON HEAD IS MOSUNNY   82  61  47 NE8       30.16S
WALTERBORO     PTSUNNY   86  59  39 SE5       30.14F
ALLENDALE      FAIR      84  61  45 VRB6G14   30.12F

...SOUTHERN MIDLANDS AND PEE DEE...

CITY           SKY/WX    TMP DP  RH WIND       PRES   REMARKS
GEORGETOWN     FAIR      81  59  47 SE12G17   30.16F
KINGSTREE      FAIR      82  55  39 SE7       30.14F
ORANGEBURG     MOSUNNY   83  61  47 SE9       30.13F
BARNWELL       FAIR      84  64  51 CALM      30.14F
AIKEN          FAIR      81  59  47 S7        30.17F
MANNING        FAIR      81  61  50 S5        30.13F
COLUMBIA       MOSUNNY   84  60  44 MISG      30.13F
SUMTER         MOSUNNY   84  62  47 VRB1      30.11F
FLORENCE       MOSUNNY   83  61  47 E6        30.14F
MYRTLE BEACH   MOSUNNY   81  59  47 SE12      30.18S
N MYRTLE BEACH SUNNY     80  62  54 E10       30.16F

$$

GAZ063-065-086>088-099>101-113>116-118-119-134>141-150-271800-
...SOUTHEAST GEORGIA...

CITY           SKY/WX    TMP DP  RH WIND       PRES   REMARKS
SAVANNAH ARPT  MOSUNNY   82  60  47 SE15G21   30.12F
HUNTER AAF     MOSUNNY   82  62  50 E9        30.11S
FORT STEWART   MOSUNNY   83  60  46 E8G16     30.09F
STATESBORO     SUNNY     85  61  44 E8        30.12F
SYLVANIA       SUNNY     85  62  46 S6        30.13F
CLAXTON        FAIR      84  61  44 NE10G18   30.12F

...CSRA...CENTRAL AND FAR SOUTHEAST GEORGIA...

CITY           SKY/WX    TMP DP  RH WIND       PRES   REMARKS
THOMSON        SUNNY     84  62  47 S3        30.18F
AUGUSTA-BUSH   MOSUNNY   83  61  47 VRB7      30.12F
AUGUSTA-DANIEL PTSUNNY   82  59  45 SE7       30.14F
SWAINSBORO     FAIR      84  55  37 SE8       30.13F
VIDALIA        SUNNY     82  54  36 E10       30.12F
EASTMAN        FAIR      86  56  35 E8G17     30.12F
HAZLEHURST     FAIR      85  55  36 SE3       30.10F
ALMA           MOSUNNY   82  61  48 SE8       30.10F
WAYCROSS       MOSUNNY   83  63  49 E8G16     30.10F
JESUP          PTSUNNY   77  59  53 E7        30.11F
BAXLEY         FAIR      86  57  37 E8        30.10F
BRUNSWICK      MOSUNNY   86  63  45 E9G18     30.12F
SAINT SIMONS   SUNNY     82  62  50 NE12      30.11F

$$

SCZ027-028-034-036>038-045-046-048>050-GAZ119-141-271800-
...LAKE AND SUPPLEMENTAL COASTAL OBSERVATIONS...

STATION/POSITION TIME  TEMP    WIND        PRES    WAVE   SWELL
                       AIR SEA DIR/SP/G            HT/PER HT/PER/DIR
                 (UTC) (F)     (DEG/KT/KT) (MB)    (FT/S) (FT/S/D)
WINYAH BAY       1545   77     100/  7     1021.0
LAKE MURRAY      1600   76     150/  3/  4 1020.7S
ACE BASIN NERRS  NOT AVBL
FORT PULASKI     1600   76 77   60/ 10/ 12 1021.2R
SAPELO ISLAND    1600   81      60/  9     1020.0S

$$

ANZ835-935-AMZ111-154-330-350-352-354-370-450-454-472-271800-
...C-MAN AND BUOY OBSERVATIONS...

STATION/POSITION TIME  TEMP    WIND        PRES    WAVE   SWELL
                       AIR SEA DIR/SP/G            HT/PER HT/PER/DIR
                 (UTC) (F)     (DEG/KT/KT) (MB)    (FT/S) (FT/S/D)
BUOY 41004       1650   76 77   50/ 14/ 16 1020.0F   3/ 8   2/ 8
BUOY 41008       1650   77 77   70/ 10/ 12 1019.9F   4/ 5   3/130/ 5
FOLLY BEACH CMAN 1700   78      60/ 12/ 13 1020.8F
CAPERS NEARSHORE 1608   76 77   70/ 10/ 14 1020.8R
FRIPP NEARSHORE  1608   76 76   70/ 10/ 12 1020.2R


STATION/POSITION TIME  TEMP    WIND        PRES    WAVE   SWELL
                       AIR SEA DIR/SP/G            HT/PER HT/PER/DIR
                 (UTC) (F)     (DEG/KT/KT) (MB)    (FT/S) (FT/S/D)
5E ST. MARYS GA  1601      77                N/A     3/ 6
FRYING PAN BUOY  1600   76 76   70/ 12/ 14 1021.1R
BUOY 41025       1650   77 82  130/ 10/ 12 1022.1F   2/ 8   2/140/ 8
CAPE LOOKOUT NC  1700   75     100/  6/  7 1021.4F
BUOY 41002       1650   77 78   70/ 17/ 21 1019.1F   4/ 5   2/100/ 9
BUOY 41010       1620   77 78   40/ 17/ 19 1017.2F
ST AUGUSTINE FL  1700   77 79  100/ 12/ 14 1019.5F


$$



USA.gov is the U.S. government's official web portal to all federal, state and local government web resources and services.